GW1475 Weather Reports


time (UTC)temp
C
wind
direction
speed
KPH
gust
KPH
rain 1hr
cm
rain 24hr
cm
rain mn
cm
humidity
%
barometer
mb
20260903115112 21 119 0.0 0.0 0.00 0.00 0.00 99 1013.2
20260903114544 21 126 0.0 0.0 0.00 0.00 0.00 99 1013.2
20260903113906 21 124 0.0 0.0 0.00 0.00 0.00 99 1013.2
20260903113322 21 122 0.0 0.0 0.00 0.00 0.00 99 1013.2
20260903112724 21 117 0.0 0.0 0.00 0.00 0.00 99 1013.2
20260903112110 21 107 0.0 0.0 0.00 0.00 0.00 99 1013.2
20260903111518 21 136 0.0 0.0 0.00 0.00 0.00 99 1013.2
20260903110912 21 109 0.0 0.0 0.00 0.00 0.00 99 1013.2
20260903110347 21 123 0.0 0.0 0.00 0.00 0.00 99 1012.8
20260903105709 21 107 0.0 0.0 0.00 0.00 0.00 99 1012.8
20260903104523 21 111 0.0 0.0 0.00 0.00 0.00 99 1012.8
20260903103932 21 95 0.0 0.0 0.00 0.00 0.00 99 1012.5
20260903102724 21 119 0.0 0.0 0.00 0.00 0.00 99 1012.8
20260903101537 21 121 0.0 0.0 0.00 0.00 0.00 99 1012.8
20260903100939 21 118 0.0 0.0 0.00 0.00 0.00 99 1012.5
20260903100316 21 92 0.0 0.0 0.00 0.00 0.00 99 1012.1
20260903095728 21 127 0.0 0.0 0.00 0.00 0.00 99 1012.5
20260903093345 21 126 0.0 0.0 0.00 0.00 0.00 99 1012.5
20260903092706 21 128 0.0 0.0 0.00 0.00 0.00 99 1012.5
20260903092127 21 120 0.0 0.0 0.00 0.00 0.00 99 1012.5
20260903091542 21 128 0.0 0.0 0.00 0.00 0.00 99 1012.5
20260903090914 21 113 0.0 0.0 0.00 0.00 0.00 99 1012.5
20260903090341 22 115 0.0 0.0 0.00 0.00 0.00 99 1012.5
20260903085130 22 128 0.0 0.0 0.00 0.00 0.00 99 1012.1
20260903084549 22 130 0.0 0.0 0.00 0.00 0.00 99 1012.5
20260903083943 22 120 0.0 0.0 0.00 0.00 0.00 99 1012.5
20260903083337 22 115 0.0 0.0 0.00 0.00 0.00 99 1012.5
20260903082709 22 148 0.0 0.0 0.00 0.00 0.00 99 1012.5
20260903080311 22 129 0.0 0.0 0.00 0.00 0.00 99 1012.5
20260903075721 22 119 0.0 0.0 0.00 0.00 0.00 99 1012.5
20260903074520 22 122 0.0 0.0 0.00 0.00 0.00 99 1012.5
20260903073915 22 120 0.0 0.0 0.00 0.00 0.00 99 1012.5
20260903073311 22 100 1.6 1.6 0.00 0.00 0.00 99 1012.5
20260903072115 22 124 0.0 0.0 0.00 0.00 0.00 99 1012.1
20260903071506 22 133 0.0 0.0 0.00 0.00 0.00 99 1012.1
20260903070338 22 128 0.0 0.0 0.00 0.00 0.00 99 1012.1
20260903064530 22 138 0.0 0.0 0.00 0.00 0.00 99 1012.1
20260903063923 22 137 0.0 0.0 0.00 0.00 0.00 99 1012.1
20260903063349 22 114 0.0 0.0 0.00 0.00 0.00 99 1012.1
20260903062738 22 122 0.0 0.0 0.00 0.00 0.00 99 1012.1
20260903061509 22 136 0.0 0.0 0.00 0.00 0.00 99 1012.1
20260903055742 22 109 0.0 0.0 0.00 0.00 0.00 99 1012.1
20260903055123 22 161 0.0 0.0 0.00 0.00 0.00 99 1012.1
20260903054512 22 161 0.0 0.0 0.00 0.00 0.00 99 1012.1
20260903053912 22 161 0.0 0.0 0.00 0.00 0.00 99 1012.1
20260903053326 22 161 0.0 0.0 0.00 0.00 0.00 99 1012.5
20260903052716 22 162 0.0 0.0 0.00 0.00 0.00 99 1012.5
20260903052140 22 161 0.0 0.0 0.00 0.00 0.00 99 1012.1
20260903051516 22 161 0.0 0.0 0.00 0.00 0.00 99 1012.1
20260903050946 22 161 0.0 0.0 0.00 0.00 0.00 99 1012.1
20260903050317 22 162 0.0 0.0 0.00 0.00 0.00 99 1012.1
20260903045749 22 161 0.0 0.0 0.00 0.00 0.00 99 1012.5
20260903045134 22 161 0.0 0.0 0.00 0.00 0.00 99 1012.1
20260903044534 22 161 0.0 0.0 0.00 0.00 0.00 99 1012.1
20260903043325 23 162 0.0 0.0 0.00 0.00 0.00 99 1012.1
20260903042124 23 160 0.0 0.0 0.00 0.00 0.00 99 1012.1
20260903041529 23 160 0.0 0.0 0.00 0.00 0.00 99 1012.5
20260903040939 23 160 0.0 0.0 0.00 0.00 0.00 99 1012.1
20260903040314 23 160 0.0 0.0 0.00 0.00 0.00 99 1012.1
20260903035743 23 160 0.0 0.0 0.00 0.00 0.00 99 1012.5
20260903035135 23 160 0.0 0.0 0.00 0.00 0.00 99 1012.5
20260903034514 23 160 0.0 0.0 0.00 0.00 0.00 99 1012.5
20260903033911 23 160 0.0 0.0 0.00 0.00 0.00 99 1012.5
20260903033312 23 160 0.0 0.0 0.00 0.00 0.00 99 1012.1
20260903032713 23 160 0.0 0.0 0.00 0.00 0.00 99 1012.1
20260903032137 23 160 0.0 0.0 0.00 0.00 0.00 99 1012.1
20260903031547 23 160 0.0 0.0 0.00 0.00 0.00 99 1012.1
20260903030924 23 161 0.0 0.0 0.00 0.00 0.00 99 1012.5
20260903030322 23 161 0.0 0.0 0.00 0.00 0.00 99 1012.5
20260903025125 23 128 0.0 0.0 0.00 0.00 0.00 99 1012.1
20260903024531 24 102 1.6 1.6 0.00 0.00 0.00 99 1012.1
20260903023946 23 151 0.0 0.0 0.00 0.00 0.00 99 1012.1
20260903023331 24 151 0.0 0.0 0.00 0.00 0.00 99 1012.5
20260903022714 24 151 0.0 0.0 0.00 0.00 0.00 99 1012.5
20260903022143 24 151 0.0 0.0 0.00 0.00 0.00 99 1012.8
20260903021535 24 153 0.0 0.0 0.00 0.00 0.00 99 1012.5
20260903020909 24 150 0.0 0.0 0.00 0.00 0.00 99 1012.8
20260903020345 24 151 0.0 0.0 0.00 0.00 0.00 99 1012.5
20260903014529 24 151 0.0 0.0 0.00 0.00 0.00 99 1012.5
20260903013913 25 137 0.0 0.0 0.00 0.00 0.00 99 1012.5
20260903012719 25 150 0.0 0.0 0.00 0.00 0.00 99 1012.1
20260903012116 25 116 0.0 0.0 0.00 0.00 0.00 99 1012.1
20260903011516 25 148 0.0 0.0 0.00 0.00 0.00 99 1012.1
20260903010932 25 168 0.0 0.0 0.00 0.00 0.00 99 1012.1
20260903010347 25 99 0.0 0.0 0.00 0.00 0.00 99 1011.8
20260903005737 25 174 0.0 0.0 0.00 0.00 0.00 99 1011.8
20260903005112 25 174 0.0 0.0 0.00 0.00 0.00 99 1011.8
20260903004510 25 174 0.0 0.0 0.00 0.00 0.00 99 1011.8
20260903003930 25 172 0.0 0.0 0.00 0.00 0.00 99 1011.8
20260903003317 26 172 0.0 0.0 0.00 0.00 0.00 99 1011.5
20260903002744 26 173 0.0 0.0 0.00 0.00 0.00 99 1011.5
20260903001505 26 164 0.0 0.0 0.00 0.00 0.00 99 1011.5
20260903000931 26 159 0.0 0.0 0.00 0.00 0.00 99 1011.5
20260903000344 26 159 0.0 0.0 0.00 0.00 0.00 98 1011.5
20260902235720 27 159 0.0 0.0 0.00 0.00 0.00 97 1011.1
20260902235116 27 160 0.0 0.0 0.00 0.00 0.00 97 1011.1
20260902234516 27 134 0.0 0.0 0.00 0.00 0.00 96 1011.5
20260902233910 27 226 0.0 0.0 0.00 0.00 0.00 96 1011.1
20260902233347 27 226 0.0 0.0 0.00 0.00 0.00 95 1011.5
20260902232721 27 226 0.0 0.0 0.00 0.00 0.00 95 1011.5
20260902231506 28 226 0.0 0.0 0.00 0.00 0.00 93 1011.5
20260902230925 28 226 0.0 0.0 0.00 0.00 0.00 93 1011.5
20260902225744 28 226 0.0 0.0 0.00 0.00 0.00 91 1011.1
20260902225108 29 226 0.0 1.6 0.00 0.00 0.00 89 1011.5
20260902224527 30 227 0.0 0.0 0.00 0.00 0.00 87 1011.1
20260902223919 30 227 0.0 0.0 0.00 0.00 0.00 84 1011.5
20260902223305 30 227 0.0 0.0 0.00 0.00 0.00 82 1011.5
20260902222712 31 227 0.0 1.6 0.00 0.00 0.00 79 1011.5
20260902222134 32 228 0.0 0.0 0.00 0.00 0.00 77 1011.1
20260902221527 32 229 0.0 0.0 0.00 0.00 0.00 74 1011.5
20260902220948 31 230 1.6 1.6 0.00 0.00 0.00 75 1011.5
20260902220308 31 237 1.6 1.6 0.00 0.00 0.00 75 1011.5
20260902215711 31 242 1.6 1.6 0.00 0.00 0.00 78 1011.5
20260902215144 31 243 1.6 1.6 0.00 0.00 0.00 78 1011.5
20260902214509 31 255 1.6 1.6 0.00 0.00 0.00 78 1011.5
20260902213936 31 257 1.6 1.6 0.00 0.00 0.00 78 1011.8
20260902213338 31 208 0.0 1.6 0.00 0.00 0.00 77 1011.8
20260902212731 32 277 3.2 3.2 0.00 0.00 0.00 78 1011.5
20260902212120 32 255 3.2 3.2 0.00 0.00 0.00 71 1011.1
20260902211528 33 253 3.2 6.4 0.00 0.00 0.00 71 1011.5
20260902210346 34 149 3.2 3.2 0.00 0.00 0.00 66 1011.8
20260902205741 34 89 1.6 3.2 0.00 0.00 0.00 60 1011.8
20260902205127 35 96 1.6 4.8 0.00 0.00 0.00 58 1011.8
20260902203932 34 239 1.6 3.2 0.00 0.00 0.00 57 1011.8
20260902203344 35 109 8.0 12.9 0.00 0.00 0.00 58 1012.1
20260902202149 36 124 3.2 6.4 0.00 0.00 0.00 57 1012.1
20260902201522 35 212 4.8 4.8 0.00 0.00 0.00 59 1012.1
20260902200942 35 233 3.2 3.2 0.00 0.00 0.00 56 1011.8
20260902200323 35 255 4.8 4.8 0.00 0.00 0.00 60 1012.1
20260902195722 35 79 1.6 1.6 0.00 0.00 0.00 58 1012.1
20260902193930 35 181 3.2 3.2 0.00 0.00 0.00 60 1012.1
20260902192730 34 73 6.4 6.4 0.00 0.00 0.00 58 1012.1
20260902192136 34 98 6.4 11.3 0.00 0.00 0.00 59 1012.1
20260902191520 34 89 4.8 6.4 0.00 0.00 0.00 59 1012.5
20260902190935 35 85 8.0 11.3 0.00 0.00 0.00 57 1012.5
20260902190313 35 56 1.6 3.2 0.00 0.00 0.00 56 1012.5
20260902185110 35 267 4.8 4.8 0.00 0.00 0.00 61 1012.8
20260902184516 34 254 3.2 3.2 0.00 0.00 0.00 59 1013.2
20260902183328 35 157 0.0 0.0 0.00 0.00 0.00 59 1012.8
20260902182735 34 98 0.0 0.0 0.00 0.00 0.00 60 1013.2
20260902182144 33 332 6.4 6.4 0.00 0.00 0.00 61 1013.2
20260902181524 33 281 6.4 6.4 0.00 0.00 0.00 62 1013.2
20260902180917 34 196 1.6 1.6 0.00 0.00 0.00 60 1013.2
20260902175722 33 269 1.6 3.2 0.00 0.00 0.00 61 1013.2
20260902175149 33 231 1.6 3.2 0.00 0.00 0.00 63 1013.5
20260902174513 32 295 0.0 1.6 0.00 0.00 0.00 64 1013.2
20260902173913 33 218 3.2 3.2 0.00 0.00 0.00 65 1013.2
20260902173324 34 156 3.2 3.2 0.00 0.00 0.00 62 1013.8
20260902172743 33 240 1.6 3.2 0.00 0.00 0.00 61 1013.5
20260902171515 33 284 6.4 9.7 0.00 0.00 0.00 64 1013.8
20260902170937 33 161 0.0 1.6 0.00 0.00 0.00 66 1014.2
20260902165724 33 84 1.6 3.2 0.00 0.00 0.00 67 1014.2
20260902165116 32 186 3.2 3.2 0.00 0.00 0.00 68 1014.2
20260902164509 33 258 1.6 1.6 0.00 0.00 0.00 69 1014.2
20260902163912 33 227 1.6 3.2 0.00 0.00 0.00 68 1014.5
20260902162746 32 90 1.6 1.6 0.00 0.00 0.00 70 1014.5
20260902161510 32 108 8.0 11.3 0.00 0.00 0.00 71 1014.5
20260902160909 32 51 1.6 3.2 0.00 0.00 0.00 72 1014.9
20260902160313 32 81 9.7 11.3 0.00 0.00 0.00 73 1014.9
20260902155109 32 131 3.2 4.8 0.00 0.00 0.00 75 1014.5
20260902154534 31 113 9.7 11.3 0.00 0.00 0.00 76 1014.5
20260902153913 31 71 3.2 3.2 0.00 0.00 0.00 77 1014.5
20260902153344 31 107 3.2 4.8 0.00 0.00 0.00 80 1014.9
20260902152731 31 90 6.4 6.4 0.00 0.00 0.00 79 1014.9
20260902152148 31 98 4.8 6.4 0.00 0.00 0.00 80 1014.5
20260902151521 30 96 3.2 3.2 0.00 0.00 0.00 80 1014.5
20260902150946 30 84 1.6 3.2 0.00 0.00 0.00 82 1014.5
20260902150321 30 93 1.6 1.6 0.00 0.00 0.00 85 1014.5
20260902145706 29 99 4.8 4.8 0.00 0.00 0.00 86 1014.5
20260902145124 28 103 3.2 3.2 0.00 0.00 0.00 89 1014.5
20260902144544 28 89 1.6 3.2 0.00 0.00 0.00 88 1014.9
20260902143925 27 95 4.8 4.8 0.00 0.00 0.00 91 1014.5
20260902143334 27 100 3.2 3.2 0.00 0.00 0.00 92 1014.5
20260902142112 27 103 3.2 3.2 0.00 0.00 0.00 95 1014.5
20260902141510 26 97 1.6 1.6 0.00 0.00 0.00 96 1014.5
20260902140912 26 99 1.6 1.6 0.00 0.00 0.00 97 1014.5
20260902140329 26 98 1.6 1.6 0.00 0.00 0.00 99 1014.5
20260902135749 25 91 1.6 1.6 0.00 0.00 0.00 99 1014.5
20260902135130 25 87 1.6 1.6 0.00 0.00 0.00 99 1014.5
20260902134547 24 99 1.6 3.2 0.00 0.00 0.00 99 1014.5
20260902133947 24 91 0.0 0.0 0.00 0.00 0.00 99 1014.5
20260902132736 23 103 0.0 0.0 0.00 0.00 0.00 99 1014.5
20260902132118 23 96 0.0 0.0 0.00 0.00 0.00 99 1014.5
20260902131515 22 108 0.0 0.0 0.00 0.00 0.00 99 1014.5
20260902130928 22 114 0.0 0.0 0.00 0.00 0.00 99 1014.9
20260902130319 22 114 0.0 0.0 0.00 0.00 0.00 99 1014.9
20260902125725 21 117 0.0 0.0 0.00 0.00 0.00 99 1014.5
20260902125134 21 95 0.0 0.0 0.00 0.00 0.00 99 1014.9
20260902124520 21 110 0.0 0.0 0.00 0.00 0.00 99 1014.9
20260902123920 21 112 0.0 0.0 0.00 0.00 0.00 99 1014.9
20260902123305 21 108 0.0 0.0 0.00 0.00 0.00 99 1014.5
20260902122707 21 102 0.0 0.0 0.00 0.00 0.00 99 1014.5
20260902122147 21 107 0.0 0.0 0.00 0.00 0.00 99 1014.5
20260902120946 20 117 0.0 0.0 0.00 0.00 0.00 99 1014.5
20260902115705 20 106 0.0 0.0 0.00 0.00 0.00 99 1014.5